Location: Monroe
(41.9160°N, 83.3980°W)
Time: 03:33:17
(UTC-05:00)

Amateur Radio Satellites - All Passes

Search period start: 04 March 2015 03:03
Search period end: 05 March 2015 03:03
Location: Monroe, 41.9160°N, 83.3980°W

Satellite Date Start Highest point End Downlink Frequencies (MHz)
Time Altitude Azimuth
M-CUBED/EXP-1 PRIME 04 Mar 03:05:34 03:07:51 18° 62° (ENE) 03:10:18 437.505
AUBIESAT-1 04 Mar 03:06:30 03:08:37 16° 61° (ENE) 03:10:54 437.475
BEESAT 3 04 Mar 03:34:59 03:37:05 13° 250° (WSW) 03:39:00 437.485
RS-15 04 Mar 03:48:59 03:57:10 22° 352° (N) 04:05:30 29.354- 29.394
MOZHAYETS 4 04 Mar 04:05:23 04:09:43 45° 72° (ENE) 04:14:07
AIST 2 04 Mar 04:06:37 04:09:46 20° 248° (WSW) 04:12:47 435.215
JAS-2 04 Mar 04:07:56 04:14:34 34° 93° (E) 04:21:34 435.910
YUBILEINY 04 Mar 04:17:54 04:26:36 63° 268° (W) 04:35:14 435.215
Gurwin Techsat 1B 04 Mar 04:17:57 04:22:32 29° 293° (WNW) 04:27:00 435.225
AO-7 04 Mar 04:19:47 04:27:43 48° 100° (E) 04:35:41 29.400- 29.500
ITAMSAT 1 04 Mar 04:38:26 04:41:32 16° 299° (WNW) 04:44:24 435.822/435.867
HORYU 2 04 Mar 04:38:32 04:42:51 50° 288° (WNW) 04:47:10 437.375
M-CUBED/EXP-1 PRIME 04 Mar 04:39:53 04:42:42 25° 259° (W) 04:45:36 437.505
AUBIESAT-1 04 Mar 04:40:25 04:43:21 28° 259° (WSW) 04:46:22 437.475
PCSat 04 Mar 05:09:13 05:14:13 37° 51° (NE) 05:19:14 145.827
STRAND 1 04 Mar 05:14:42 05:17:32 15° 61° (ENE) 05:20:35 437.568
MOZHAYETS 4 04 Mar 05:44:07 05:47:15 18° 270° (W) 05:50:16
JAS-2 04 Mar 05:52:35 05:59:49 54° 290° (WNW) 06:07:22 435.910
RS-15 04 Mar 06:05:02 06:14:29 30° 27° (NNE) 06:24:28 29.354- 29.394
CUBESAT XI-V 04 Mar 06:08:15 06:12:54 69° 76° (ENE) 06:17:38 437.345
AO-7 04 Mar 06:12:50 06:20:26 41° 299° (WNW) 06:27:54 29.400- 29.500
AIST 1 04 Mar 06:13:04 06:14:35 12° 85° (E) 06:16:21
PRISM 04 Mar 06:14:01 06:18:10 87° 77° (ENE) 06:22:23 437.425
YUBILEINY 04 Mar 06:19:51 06:21:50 11° 286° (WNW) 06:23:02 435.215
Cubesat XI-IV 04 Mar 06:35:51 06:41:04 49° 99° (E) 06:46:15 437.490
CUTE-I 04 Mar 06:44:19 06:49:36 58° 100° (E) 06:54:53 437.470
STRAND 1 04 Mar 06:51:04 06:56:12 73° 258° (WSW) 07:01:23 437.568
PCSat 04 Mar 06:52:45 06:57:37 34° 249° (WSW) 07:02:24 145.827
JAS-2 04 Mar 07:41:06 07:43:36 12° 307° (NW) 07:45:38 435.910
AIST 1 04 Mar 07:47:29 07:51:47 59° 281° (W) 07:56:08
CUBESAT XI-V 04 Mar 07:48:54 07:50:57 12° 273° (W) 07:52:45 437.345
HO-68 04 Mar 07:49:49 07:52:47 13° 85° (E) 07:56:16 435.675
SO-50 04 Mar 08:15:42 08:16:00 10° 28° (NNE) 08:16:28 436.795
ISS 04 Mar 08:16:20 08:19:06 27° 136° (SE) 08:21:54 145.825
Cubesat XI-IV 04 Mar 08:16:40 08:20:53 23° 296° (WNW) 08:24:56 437.490
GOMX 1 04 Mar 08:16:56 08:18:57 13° 88° (E) 08:21:08 467.674
RS-15 04 Mar 08:17:39 08:29:07 78° 54° (NE) 08:41:07 29.354- 29.394
BRITE-PL 04 Mar 08:19:27 08:22:57 23° 91° (E) 08:26:24 437.365/2234.400
CUTE-I 04 Mar 08:25:25 08:29:17 20° 297° (WNW) 08:32:59 437.470
GONETS M04 04 Mar 08:30:21 08:38:30 42° 72° (ENE) 08:46:46
COMPASS 1 04 Mar 08:31:13 08:32:54 12° 89° (E) 08:34:49 437.405
DOVE 4 04 Mar 08:43:16 08:46:04 18° 91° (E) 08:48:57 437.250
UNISAT 6 04 Mar 08:59:01 09:00:16 11° 63° (ENE) 09:01:44 437.425
SEEDS 04 Mar 08:59:25 09:03:12 31° 96° (E) 09:07:01 437.485
CANX-2 04 Mar 09:05:07 09:09:15 48° 99° (E) 09:13:23 2200.000
TIGRISAT 04 Mar 09:21:21 09:24:21 19° 67° (ENE) 09:27:27 435.000
CUTE 1.7 + AOD 2 04 Mar 09:23:23 09:27:39 71° 101° (E) 09:31:54 437.475
DELFI C3 04 Mar 09:24:27 09:26:53 16° 91° (E) 09:29:27 145.870
HO-68 04 Mar 09:34:33 09:41:47 80° 105° (ESE) 09:49:00 435.675
O/OREOS (USA 219) 04 Mar 09:34:58 09:39:32 89° 291° (WNW) 09:44:09 437.305
ANTELSAT 04 Mar 09:35:11 09:38:50 27° 69° (ENE) 09:42:29 437.575/2403.000
POPSAT HIP 1 04 Mar 09:36:51 09:39:22 16° 65° (ENE) 09:42:03 437.405
POLYITAN 1 04 Mar 09:37:08 09:39:43 16° 66° (ENE) 09:42:27 437.675
UWE-3 04 Mar 09:43:43 09:46:44 20° 93° (E) 09:49:51 435.000/436.395/437.385
ISS 04 Mar 09:52:24 09:55:27 38° 333° (NNW) 09:58:30 145.825
SO-50 04 Mar 09:53:10 09:57:54 44° 50° (NE) 10:02:37 436.795
GOMX 1 04 Mar 09:53:21 09:57:36 50° 287° (WNW) 10:01:38 467.674
BRITE-PL 04 Mar 09:57:36 10:01:38 31° 291° (WNW) 10:05:23 437.365/2234.400
NANOSAT C BR1 04 Mar 09:58:12 10:01:44 26° 69° (ENE) 10:05:19 145.865
AAUSAT CUBESAT 2 04 Mar 10:00:53 10:05:05 72° 283° (WNW) 10:09:15 437.432
COMPASS 1 04 Mar 10:04:54 10:09:03 56° 286° (WNW) 10:13:10 437.405
Oscar 11 04 Mar 10:05:49 10:10:07 59° 101° (E) 10:14:23 145.826/435.025
CINEMA 3 04 Mar 10:15:03 10:19:14 81° 284° (WNW) 10:23:22 145.822/145.860
DOVE 4 04 Mar 10:20:10 10:24:07 37° 289° (WNW) 10:27:55 437.250
CUBEBUG 2 04 Mar 10:24:04 10:28:13 69° 101° (E) 10:32:22 437.445
50 SAT 04 Mar 10:25:24 10:27:51 16° 91° (E) 10:30:25 437.505
GONETS M04 04 Mar 10:27:16 10:35:25 44° 272° (W) 10:43:28
QB50P1 04 Mar 10:30:43 10:34:56 59° 74° (ENE) 10:39:10 145.935-145.965
RS-15 04 Mar 10:31:06 10:40:44 31° 254° (WSW) 10:50:15 29.354- 29.394
BUGSAT 1 04 Mar 10:32:03 10:36:07 45° 73° (ENE) 10:40:14 437.445
UNISAT 6 04 Mar 10:32:11 10:36:35 74° 259° (W) 10:40:55 437.425
DX 1 04 Mar 10:33:07 10:37:25 53° 100° (E) 10:41:40 434.975-435.025
QB50P2 04 Mar 10:35:09 10:39:25 67° 75° (ENE) 10:43:40 145.880/145.840
SEEDS 04 Mar 10:35:32 10:38:54 23° 292° (WNW) 10:42:10 437.485
DANDE 04 Mar 10:39:28 10:40:55 14° 70° (ENE) 10:42:26 436.750
CANX-2 04 Mar 10:42:12 10:44:51 16° 294° (WNW) 10:47:22 2200.000
CUBEBUG 1 04 Mar 10:43:53 10:45:31 12° 88° (E) 10:47:22 437.445
AISAT 04 Mar 10:44:43 10:48:36 29° 96° (E) 10:52:29 437.250
HUMSAT D 04 Mar 10:45:37 10:49:31 41° 98° (E) 10:53:26 437.325/437.525
DUCHIFAT 1 04 Mar 10:48:38 10:52:55 89° 255° (WSW) 10:57:13 145.980
VELOX 1 04 Mar 10:53:15 10:57:20 35° 97° (E) 11:01:24 145.980
FUNcube-1 04 Mar 10:54:12 10:58:22 81° 284° (WNW) 11:02:32 145.935
ZACube-1 04 Mar 10:56:07 11:00:16 76° 284° (WNW) 11:04:26 437.345
TIGRISAT 04 Mar 10:56:44 11:00:53 40° 262° (W) 11:04:58 435.000
CUSAT 1 04 Mar 10:57:56 11:00:24 39° 77° (ENE) 11:02:58 437.405
DELFI C3 04 Mar 10:58:27 11:02:20 42° 287° (WNW) 11:06:11 145.870
UKube-1 04 Mar 11:00:24 11:04:46 81° 285° (WNW) 11:09:05 .
CUTE 1.7 + AOD 2 04 Mar 11:01:37 11:03:04 11° 297° (WNW) 11:04:19 437.475
POPSAT HIP 1 04 Mar 11:10:45 11:14:55 49° 260° (W) 11:19:06 437.405
POLYITAN 1 04 Mar 11:11:10 11:15:20 48° 261° (W) 11:19:30 437.675
ANTELSAT 04 Mar 11:11:49 11:15:36 27° 265° (W) 11:19:18 437.575/2403.000
ESTCUBE 1 04 Mar 11:15:31 11:19:32 30° 95° (E) 11:23:34 437.505/2401.250
O/OREOS (USA 219) 04 Mar 11:18:03 11:19:46 12° 312° (NW) 11:21:16 437.305
UWE-3 04 Mar 11:19:39 11:23:25 33° 289° (WNW) 11:27:09 435.000/436.395/437.385
HO-68 04 Mar 11:23:33 11:28:50 22° 303° (WNW) 11:33:53 435.675
ISS 04 Mar 11:30:29 11:32:33 16° 353° (N) 11:34:36 145.825
NANOSAT C BR1 04 Mar 11:33:49 11:37:32 28° 265° (W) 11:41:13 145.865
SO-50 04 Mar 11:34:11 11:38:16 26° 247° (WSW) 11:42:15 436.795
Oscar 11 04 Mar 11:43:36 11:45:52 14° 296° (WNW) 11:47:57 145.826/435.025
50 SAT 04 Mar 11:59:22 12:03:03 37° 288° (WNW) 12:06:42 437.505
CUBEBUG 2 04 Mar 12:03:16 12:04:27 11° 297° (WNW) 12:05:24 437.445
BUGSAT 1 04 Mar 12:09:08 12:11:54 16° 269° (W) 12:14:29 437.445
QB50P1 04 Mar 12:09:24 12:11:17 12° 271° (W) 12:12:56 145.935-145.965
DX 1 04 Mar 12:10:38 12:13:17 16° 296° (WNW) 12:15:47 434.975-435.025
QB50P2 04 Mar 12:14:47 12:15:52 11° 272° (W) 12:16:41 145.880/145.840
CUBEBUG 1 04 Mar 12:18:02 12:22:25 62° 286° (WNW) 12:26:43 437.445
AISAT 04 Mar 12:21:24 12:25:09 26° 292° (WNW) 12:28:48 437.250
HUMSAT D 04 Mar 12:22:18 12:25:02 17° 294° (WNW) 12:27:39 437.325/437.525
DANDE 04 Mar 12:23:16 12:24:08 11° 268° (W) 12:24:54 436.750
VELOX 1 04 Mar 12:30:14 12:33:45 23° 293° (WNW) 12:37:08 145.980
Oscar 19 04 Mar 12:34:29 12:39:11 39° 70° (ENE) 12:43:56 437.125/150
ITAMSAT 1 04 Mar 12:38:56 12:41:54 16° 61° (ENE) 12:45:05 435.822/435.867
TISAT 1 04 Mar 12:40:21 12:44:28 51° 100° (E) 12:48:34 437.305
SPROUT 04 Mar 12:42:55 12:47:12 62° 101° (E) 12:51:26 437.525
ESTCUBE 1 04 Mar 12:52:28 12:56:20 27° 292° (WNW) 13:00:06 437.505/2401.250
ISS 04 Mar 13:07:35 13:09:54 18° 13° (NNE) 13:12:13 145.825
SWISSCUBE 04 Mar 13:09:45 13:13:04 19° 91° (E) 13:16:32 437.505
BEESAT 04 Mar 13:17:51 13:21:24 21° 92° (E) 13:25:05 436.000
AO-7 04 Mar 13:31:10 13:35:35 16° 48° (NE) 13:40:22 29.400- 29.500
ITUPSAT 1 04 Mar 13:45:47 13:50:17 39° 97° (E) 13:54:48 437.325
Gurwin Techsat 1B 04 Mar 13:59:04 14:04:16 60° 73° (ENE) 14:09:32 435.225
HORYU 2 04 Mar 14:02:32 14:05:10 16° 65° (ENE) 14:07:58 437.375
Oscar 19 04 Mar 14:14:23 14:18:40 26° 266° (W) 14:22:53 437.125/150
ITAMSAT 1 04 Mar 14:15:40 14:20:53 72° 258° (WSW) 14:26:08 435.822/435.867
TISAT 1 04 Mar 14:17:27 14:19:55 15° 295° (WNW) 14:22:12 437.305
SPROUT 04 Mar 14:20:47 14:22:50 13° 296° (WNW) 14:24:41 437.525
JAS-2 04 Mar 14:24:46 14:26:53 12° 54° (NE) 14:29:23 435.910
KKS-1 04 Mar 14:35:13 14:38:49 24° 94° (E) 14:42:27 437.445
STARS 04 Mar 14:37:45 14:40:29 16° 91° (E) 14:43:20 437.465
ISS 04 Mar 14:43:37 14:46:50 61° 32° (NNE) 14:50:02 145.825
SWISSCUBE 04 Mar 14:46:36 14:51:15 47° 289° (WNW) 14:55:50 437.505
BEESAT 04 Mar 14:54:57 14:59:30 42° 289° (WNW) 15:03:59 436.000
AO-7 04 Mar 15:18:48 15:27:01 67° 68° (ENE) 15:35:16 29.400- 29.500
YUBILEINY 04 Mar 15:23:37 15:30:57 33° 85° (E) 15:38:33 435.215
ITUPSAT 1 04 Mar 15:24:07 15:28:00 24° 294° (WNW) 15:31:47 437.325
HORYU 2 04 Mar 15:37:09 15:41:29 52° 261° (W) 15:45:49 437.375
Gurwin Techsat 1B 04 Mar 15:41:12 15:44:45 17° 271° (W) 15:48:06 435.225
MOZHAYETS 4 04 Mar 16:02:54 16:03:46 11° 86° (E) 16:04:58
JAS-2 04 Mar 16:05:18 16:10:49 76° 74° (ENE) 16:17:06 435.910
VERMONT LUNAR 04 Mar 16:05:55 16:07:26 12° 148° (SSE) 16:09:02 437.305
KKS-1 04 Mar 16:11:33 16:15:31 32° 291° (WNW) 16:19:24 437.445
STARS 04 Mar 16:13:03 16:17:15 45° 288° (WNW) 16:21:25 437.465
BEESAT 2 04 Mar 16:18:32 16:21:05 16° 111° (ESE) 16:23:48 435.950
M-CUBED/EXP-1 PRIME 04 Mar 16:20:18 16:23:20 19° 98° (E) 16:26:39 437.505
AUBIESAT-1 04 Mar 16:20:43 16:23:31 17° 97° (E) 16:26:35 437.475
ISS 04 Mar 16:20:53 16:22:58 16° 227° (SW) 16:24:59 145.825
Cubesat XI-IV 04 Mar 16:22:16 16:24:11 12° 58° (ENE) 16:26:23 437.490
CUTE-I 04 Mar 16:29:51 16:32:28 14° 60° (ENE) 16:35:20 437.470
AO-7 04 Mar 17:13:31 17:20:30 28° 267° (W) 17:27:13 29.400- 29.500
YUBILEINY 04 Mar 17:18:53 17:27:25 55° 284° (WNW) 17:36:02 435.215
BEESAT 3 04 Mar 17:26:52 17:30:57 80° 302° (WNW) 17:35:08 437.485
MOZHAYETS 4 04 Mar 17:37:00 17:41:40 77° 283° (WNW) 17:46:18
VERMONT LUNAR 04 Mar 17:41:31 17:44:49 41° 163° (SSE) 17:48:09 437.305
JAS-2 04 Mar 17:53:48 17:57:00 15° 276° (W) 18:00:02 435.910
M-CUBED/EXP-1 PRIME 04 Mar 17:54:19 17:58:25 45° 292° (WNW) 18:02:47 437.505
AUBIESAT-1 04 Mar 17:54:25 17:58:35 50° 292° (WNW) 18:03:02 437.475
AIST 1 04 Mar 17:54:32 17:58:34 34° 75° (ENE) 18:02:35
BEESAT 2 04 Mar 17:54:55 17:58:56 48° 307° (NW) 18:03:00 435.950
Cubesat XI-IV 04 Mar 17:58:10 18:03:32 83° 76° (ENE) 18:08:58 437.490
PRISM 04 Mar 17:58:26 18:00:03 12° 89° (E) 18:01:53 437.425
PHONESAT 2.4 04 Mar 18:00:19 18:03:37 33° 159° (SSE) 18:06:57 2401.200-2431.200
AIST 2 04 Mar 18:03:42 18:07:57 81° 122° (ESE) 18:12:17 435.215
CUBESAT XI-V 04 Mar 18:05:55 18:08:56 17° 90° (E) 18:12:06 437.345
O/OREOS (USA 219) 04 Mar 18:06:10 18:09:36 21° 54° (NE) 18:13:07 437.305
CUTE-I 04 Mar 18:06:31 18:11:54 85° 256° (WSW) 18:17:20 437.470
HO-68 04 Mar 18:20:58 18:23:34 13° 50° (NE) 18:26:33 435.675
STRAND 1 04 Mar 19:01:31 19:06:16 37° 97° (E) 19:11:02 437.568
BEESAT 3 04 Mar 19:08:06 19:09:48 12° 324° (NW) 19:11:23 437.485
VERMONT LUNAR 04 Mar 19:19:05 19:22:34 71° 180° (S) 19:26:03 437.305
GOMX 1 04 Mar 19:24:19 19:28:09 21° 67° (ENE) 19:31:59 467.674
YUBILEINY 04 Mar 19:24:59 19:26:56 10° 310° (NW) 19:28:10 435.215
BRITE-PL 04 Mar 19:29:18 19:34:16 35° 70° (ENE) 19:39:07 437.365/2234.400
PRISM 04 Mar 19:31:49 19:36:00 58° 287° (WNW) 19:40:08 437.425
AIST 1 04 Mar 19:32:44 19:36:02 20° 272° (W) 19:39:12
PHONESAT 2.4 04 Mar 19:38:14 19:41:51 69° 175° (S) 19:45:29 2401.200-2431.200
Cubesat XI-IV 04 Mar 19:42:06 19:44:27 12° 273° (W) 19:46:27 437.490
CUBESAT XI-V 04 Mar 19:42:09 19:46:44 49° 287° (WNW) 19:51:15 437.345
CINEMA 3 04 Mar 19:43:43 19:44:43 11° 63° (ENE) 19:45:57 145.822/145.860
AIST 2 04 Mar 19:44:37 19:47:10 15° 321° (NW) 19:49:38 435.215
O/OREOS (USA 219) 04 Mar 19:44:55 19:49:17 44° 253° (WSW) 19:53:36 437.305
DOVE 4 04 Mar 19:48:39 19:52:37 24° 68° (ENE) 19:56:32 437.250
PCSat 04 Mar 19:51:44 19:56:19 29° 110° (ESE) 20:01:00 145.827
CUTE-I 04 Mar 19:52:16 19:52:56 10° 275° (W) 19:53:10 437.470
SEEDS 04 Mar 19:52:27 19:55:46 24° 69° (ENE) 19:59:10 437.485
CANX-2 04 Mar 19:58:39 20:02:29 36° 71° (ENE) 20:06:22 2200.000
HO-68 04 Mar 20:03:03 20:10:02 62° 69° (ENE) 20:17:06 435.675
DELFI C3 04 Mar 20:14:37 20:15:41 11° 64° (ENE) 20:16:59 145.870
CUTE 1.7 + AOD 2 04 Mar 20:16:38 20:20:43 52° 74° (ENE) 20:24:50 437.475
STRAND 1 04 Mar 20:40:59 20:45:21 28° 294° (WNW) 20:49:37 437.568
UWE-3 04 Mar 20:41:45 20:44:47 19° 67° (ENE) 20:47:54 435.000/436.395/437.385
AAUSAT CUBESAT 2 04 Mar 20:52:03 20:56:10 80° 78° (ENE) 21:00:20 437.432
COMPASS 1 04 Mar 20:56:25 21:00:34 80° 257° (WSW) 21:04:45 437.405
VERMONT LUNAR 04 Mar 20:56:58 21:00:19 44° 196° (SSW) 21:03:39 437.305
GOMX 1 04 Mar 21:00:46 21:06:00 51° 261° (W) 21:10:58 467.674
Oscar 11 04 Mar 21:00:55 21:05:01 47° 73° (ENE) 21:09:11 145.826/435.025
BRITE-PL 04 Mar 21:07:42 21:12:46 33° 265° (W) 21:17:35 437.365/2234.400
50 SAT 04 Mar 21:14:03 21:15:19 11° 64° (ENE) 21:16:44 437.505
PHONESAT 2.4 04 Mar 21:16:38 21:20:12 56° 192° (SSW) 21:23:46 2401.200-2431.200
CINEMA 3 04 Mar 21:16:38 21:21:25 86° 254° (WSW) 21:25:59 145.822/145.860
CUBEBUG 2 04 Mar 21:22:29 21:26:55 61° 75° (ENE) 21:31:12 437.445
DOVE 4 04 Mar 21:25:23 21:30:14 41° 263° (W) 21:34:48 437.250
SEEDS 04 Mar 21:27:50 21:31:31 29° 265° (W) 21:35:09 437.485
DX 1 04 Mar 21:28:58 21:33:11 48° 72° (ENE) 21:37:27 434.975-435.025
GONETS M04 04 Mar 21:31:49 21:39:54 47° 89° (E) 21:48:08
PCSat 04 Mar 21:34:29 21:39:36 41° 307° (NW) 21:44:44 145.827
CANX-2 04 Mar 21:35:30 21:38:36 19° 268° (W) 21:41:34 2200.000
HUMSAT D 04 Mar 21:38:11 21:41:52 31° 71° (ENE) 21:45:34 437.325/437.525
CUBEBUG 1 04 Mar 21:41:10 21:42:49 12° 63° (ENE) 21:44:43 437.445
AISAT 04 Mar 21:43:09 21:47:00 29° 69° (ENE) 21:50:55 437.250
DELFI C3 04 Mar 21:46:25 21:50:25 65° 259° (W) 21:54:27 145.870
FUNcube-1 04 Mar 21:50:10 21:54:31 82° 77° (ENE) 21:58:47 145.935
VELOX 1 04 Mar 21:51:21 21:55:23 34° 70° (ENE) 21:59:27 145.980
ZACube-1 04 Mar 21:52:15 21:56:38 88° 71° (ENE) 22:00:55 437.345
HO-68 04 Mar 21:52:29 21:58:19 26° 268° (W) 22:03:57 435.675
CUTE 1.7 + AOD 2 04 Mar 21:54:53 21:57:02 13° 271° (W) 21:59:00 437.475
UKube-1 04 Mar 21:55:27 21:59:49 90° 107° (ESE) 22:04:12 .
ESTCUBE 1 04 Mar 22:15:42 22:19:36 30° 69° (ENE) 22:23:36 437.505/2401.250
UWE-3 04 Mar 22:16:56 22:21:07 40° 262° (W) 22:25:12 435.000/436.395/437.385
QB50P2 04 Mar 22:23:12 22:23:54 10° 87° (E) 22:24:53 145.880/145.840
UNISAT 6 04 Mar 22:24:28 22:27:43 21° 93° (E) 22:31:06 437.425
DUCHIFAT 1 04 Mar 22:34:55 22:37:06 14° 90° (E) 22:39:28 145.980
VERMONT LUNAR 04 Mar 22:35:50 22:37:44 14° 211° (SSW) 22:39:34 437.305
Oscar 11 04 Mar 22:38:56 22:41:33 15° 270° (W) 22:44:00 145.826/435.025
RS-15 04 Mar 22:42:02 22:52:07 47° 111° (ESE) 23:02:26 29.354- 29.394
50 SAT 04 Mar 22:45:56 22:49:52 60° 259° (W) 22:53:48 437.505
TIGRISAT 04 Mar 22:47:53 22:51:52 36° 97° (E) 22:55:54 435.000
PHONESAT 2.4 04 Mar 22:55:32 22:58:16 20° 208° (SSW) 23:00:58 2401.200-2431.200
POPSAT HIP 1 04 Mar 22:56:12 22:59:41 25° 94° (E) 23:03:12 437.405
POLYITAN 1 04 Mar 22:56:51 23:00:23 26° 95° (E) 23:03:57 437.675
CUBEBUG 2 04 Mar 23:02:04 23:04:04 12° 271° (W) 23:05:47 437.445
ANTELSAT 04 Mar 23:02:37 23:06:52 55° 100° (E) 23:11:09 437.575/2403.000
DX 1 04 Mar 23:07:02 23:09:47 16° 269° (W) 23:12:22 434.975-435.025
CUBEBUG 1 04 Mar 23:14:14 23:18:41 73° 258° (WSW) 23:23:09 437.445
HUMSAT D 04 Mar 23:14:26 23:17:43 22° 267° (W) 23:20:54 437.325/437.525
NANOSAT C BR1 04 Mar 23:18:04 23:22:06 44° 98° (E) 23:26:08 145.865
AISAT 04 Mar 23:19:43 23:23:36 27° 265° (W) 23:27:26 437.250
VELOX 1 04 Mar 23:28:25 23:32:03 23° 266° (W) 23:35:36 145.980
GONETS M04 04 Mar 23:28:58 23:36:58 39° 290° (WNW) 23:44:54
TISAT 1 04 Mar 23:32:59 23:36:59 40° 72° (ENE) 23:41:02 437.305
SPROUT 04 Mar 23:37:20 23:41:32 50° 73° (ENE) 23:45:45 437.525
DANDE 04 Mar 23:49:16 23:55:29 45° 97° (E) 00:00:15 436.750
BUGSAT 1 04 Mar 23:49:27 23:53:37 75° 102° (ESE) 23:57:42 437.445
QB50P1 04 Mar 23:51:26 23:55:40 76° 285° (WNW) 23:59:52 145.935-145.965
ESTCUBE 1 04 Mar 23:52:38 23:56:30 27° 266° (W) 00:00:20 437.505/2401.250
QB50P2 04 Mar 23:56:09 00:00:22 66° 285° (WNW) 00:04:32 145.880/145.840
UNISAT 6 05 Mar 00:00:44 00:04:38 34° 289° (WNW) 00:08:33 437.425
CUSAT 1 05 Mar 00:05:14 00:11:19 76° 100° (E) 00:15:51 437.405
DUCHIFAT 1 05 Mar 00:09:14 00:13:18 48° 287° (WNW) 00:17:20 145.980
BEESAT 3 05 Mar 00:10:04 00:11:02 11° 35° (NE) 00:12:09 437.485
SO-50 05 Mar 00:11:21 00:12:44 11° 108° (ESE) 00:14:23 436.795
SWISSCUBE 05 Mar 00:16:50 00:20:33 23° 66° (ENE) 00:24:22 437.505
BEESAT 05 Mar 00:24:49 00:28:41 26° 67° (ENE) 00:32:39 436.000
TIGRISAT 05 Mar 00:25:14 00:28:27 20° 293° (WNW) 00:31:34 435.000
POPSAT HIP 1 05 Mar 00:31:57 00:35:35 28° 291° (WNW) 00:39:08 437.405
POLYITAN 1 05 Mar 00:32:42 00:36:18 27° 291° (WNW) 00:39:49 437.675
BEESAT 2 05 Mar 00:37:08 00:39:38 16° 40° (NE) 00:42:14 435.950
ANTELSAT 05 Mar 00:40:54 00:43:17 14° 295° (WNW) 00:45:32 437.575/2403.000
Oscar 19 05 Mar 00:47:25 00:49:29 13° 87° (E) 00:51:51 437.125/150
AIST 2 05 Mar 00:49:56 00:50:00 10° 33° (NNE) 00:50:15 435.215
ITUPSAT 1 05 Mar 00:52:56 00:57:29 47° 71° (ENE) 01:02:07 437.325
RS-15 05 Mar 00:53:46 01:04:25 54° 314° (NW) 01:15:14 29.354- 29.394
NANOSAT C BR1 05 Mar 00:54:53 00:57:40 17° 294° (WNW) 01:00:18 145.865
TISAT 1 05 Mar 01:10:02 01:13:01 18° 268° (W) 01:15:52 437.305
SPROUT 05 Mar 01:15:25 01:17:58 15° 270° (W) 01:20:21 437.525
BUGSAT 1 05 Mar 01:27:50 01:28:33 10° 298° (WNW) 01:29:03 437.445
YUBILEINY 05 Mar 01:33:32 01:38:26 16° 56° (ENE) 01:43:52 435.215
DANDE 05 Mar 01:33:48 01:38:50 24° 286° (WNW) 01:42:47 436.750
KKS-1 05 Mar 01:34:01 01:37:34 24° 68° (ENE) 01:41:13 437.445
STARS 05 Mar 01:35:36 01:38:21 17° 65° (ENE) 01:41:15 437.465
BEESAT 3 05 Mar 01:45:50 01:49:58 69° 55° (NE) 01:54:02 437.485
SO-50 05 Mar 01:48:02 01:52:38 81° 304° (NW) 01:57:26 436.795
CUSAT 1 05 Mar 01:52:04 01:54:19 12° 290° (WNW) 01:56:05 437.405
SWISSCUBE 05 Mar 01:53:44 01:58:13 39° 262° (W) 02:02:43 437.505
BEESAT 05 Mar 02:02:02 02:06:25 35° 263° (W) 02:10:48 436.000
BEESAT 2 05 Mar 02:14:11 02:18:20 71° 240° (WSW) 02:22:24 435.950
Gurwin Techsat 1B 05 Mar 02:15:35 02:19:44 23° 92° (E) 02:23:59 435.225
Oscar 19 05 Mar 02:24:24 02:29:32 76° 284° (WNW) 02:34:39 437.125/150
AIST 2 05 Mar 02:25:23 02:29:37 58° 54° (NE) 02:33:45 435.215
ITAMSAT 1 05 Mar 02:28:23 02:33:16 39° 97° (E) 02:38:09 435.822/435.867
ITUPSAT 1 05 Mar 02:32:14 02:35:42 19° 269° (W) 02:39:01 437.325
